Hourly Data Report for June 20, 2017

DRYDEN REGIONAL
ONTARIO

49°49'39.000" N
92°44'39.000" W
412.70 m
6032125
71527
YHD

Download Data

Hourly Data (June 2017)
Hourly Data Report for June 20, 2017
TIME
LST
Temp Definition
°C
Dew Point Definition
°C
Rel Hum Definition
%
Precip. Amount Definition
mm

Wind Dir Definition
10's deg

Wind Spd Definition
km/h
Visibility Definition
km
Stn Press Definition
kPa
Hmdx Definition


Wind Chill Definition


Weather Definition


00:00 10.6 9.4 92 0.0 31 9 16.1 96.19     LegendNANA
01:00 10.7 9.5 92 0.0 35 5 16.1 96.19     LegendNANA
02:00 10.7 9.5 92 0.0 32 5 16.1 96.18     LegendNANA
03:00 10.5 9.7 95 0.0 32 11 4.8 96.19     Fog
04:00 10.4 10.0 97 0.0 34 8 16.1 96.22     LegendNANA
05:00 10.1 9.1 93 0.0 2 9 16.1 96.29     LegendNANA
06:00 10.6 9.2 91 0.0 36 8 16.1 96.33     LegendNANA
07:00 11.3 9.6 89 0.0 31 11 16.1 96.40     LegendNANA
08:00 13.5 9.4 76 0.0 34 11 16.1 96.43     LegendNANA
09:00 15.1 8.5 64 0.0 33 15 16.1 96.43     LegendNANA
10:00 16.2 7.1 54 0.0 35 11 16.1 96.44     LegendNANA
11:00 16.0 7.4 56 0.0 34 17 16.1 96.46     LegendNANA
12:00 17.5 6.3 48 0.0 32 13 16.1 96.43     LegendNANA
13:00 17.6 5.5 45 0.0 32 11 16.1 96.43     LegendNANA
14:00 18.4 6.0 44 0.0 34 8 16.1 96.45     LegendNANA
15:00 19.2 5.0 39 0.0 33 13 16.1 96.45     LegendNANA
16:00 18.8 4.8 39 0.0 LegendMM 4 16.1 96.44     LegendNANA
17:00 20.1 5.1 37 0.0 33 9 16.1 96.40     LegendNANA
18:00 20.6 3.1 31 0.0 29 8 16.1 96.37     LegendNANA
19:00 19.7 4.8 37 0.0 27 17 16.1 96.38     LegendNANA
20:00 17.4 6.7 49 0.0 24 9 16.1 96.39     LegendNANA
21:00 15.6 7.1 57 0.0 24 13 16.1 96.41     LegendNANA
22:00 14.1 8.0 66 0.0 24 13 16.1 96.41     LegendNANA
23:00 13.2 7.9 70 0.0 24 11 16.1 96.42     LegendNANA

Notes on Data Quality.

Legend

  • E = Estimated
  • M = Missing
  • NA = Not Available*
  • [empty] = Indicates an unobserved value
Date modified: